Showing default

ESSA 4 (TOS-B), 2657

Orbit data source: Space-Track

ESSA 4 (TOS-B), 2657 is a payload satellite owned by ESSA (US) in SSO that was launched on Thu, 26 Jan 1967 UTC via a THOR DELTA E launch vehicle from the Air Force Western Test Range (AFWTR). Payload-class satellites include a variety of spacecraft equipped with specific instruments for various scientific and technological missions. These include communications satellites like Starlink; space stations such as the ISS; scientific satellites like the Hubble; Earth observation satellites from companies like Planet Labs, Umbra, and HawkEye 360; GPS; miniature CubeSats for education and research; and military/defense satellites.

Loading next visibility...
Identifier
2657, 1967-006A
Orbit
SSO
Country
Flag of USUS
Related business
Manufacturer
RCA/East Windsor
Mission
Non-operational spacecraft
Bus & Motor
TIROS I, Unknown motor
Mass
132 kg wet, 132 kg dry
Launch date (UTC)
1967-01-26 (59 years ago)
Launch vehicle
THOR DELTA E
Launch site
Air Force Western Test Range (AFWTR)
Object type
Payload
Rocket body
Debris
Shape & HBR
Unknown
Radar Cross Section
Medium (>0.1 m² and <1 m²)

Expand to show TLE details & history
Last TLE update: 6 hours ago

TLE from 6 hours ago
0 ESSA 4 (TOS-B)
1  2657U 67006A   26106.80859000 -.00000034  00000-0  74383-4 0  9991
2  2657 102.0886 302.2752 0073155  39.8826 331.9475 12.69890282744751
Epoch: 2026-04-16T19:24Z
TLE epoch observation values (Epoch: 2026-04-16T19:24:22.175Z)
Latitude
11.13369°
Longitude
163.82832°
Altitude
1,334.206 km
Speed
7.214 km/s
True Right ascension
19h 59m 29s
True Declination
11° 04' 25"
Sunlit
Object was in daylight at epoch
Visualization orbit readout
Latitude
Unknown
Longitude
Unknown
Altitude
Unknown
Speed
Unknown
Apparent Right ascension
Unknown
Apparent Declination
Unknown
Sunlit
N/A
Visualization observer readout
Local Sidereal Time
07:50:50
Azimuth
Unknown
Elevation
Unknown
Doppler factor
Unknown
Orbital elements
Apogee altitude
1,436.682 km
Perigee altitude
1,323.174 km
Semi-major axis
7,758.065 km
Eccentricity
0.00732
Inclination
102.0886°
RAAN
302.2752°
Arg. of periapsis
39.8826°
True anomaly
331.55006°
Mean anomaly
331.9475°
Eccentric anomaly
331.7491°
Mean motion
3.17624 °/min
Orbital period
113.34 mins
BSTAR
0.000074383
Loading maneuver chart data...
Computing Atmospheric mass density...
Loading historical data...
Loading historical data...
Loading historical data...
Loading historical data...
Loading historical data...
Loading historical data...
Loading historical data...
Other satellites on launch #6 in the year 1967 (1967-01-26 UTC)

Documentation

Showing up to 5 results
|